Allentown, PA

11:27 PM EDT on April 21, 2018 (GMT -0400)
Lehigh Valley International

Weather History for KABE - May, 2012

Change the Weather History Date:

Saturday, May 5, 2012

  Actual Average Record
Temperature  
Mean Temperature 67 °F 56 °F  
Max Temperature 76 °F 68 °F 92 °F (1949)
Min Temperature 58 °F 45 °F 31 °F (1976)
Degree Days  
Heating Degree Days 0 9  
Month to date heating degree days 17 48  
Since 1 July heating degree days 4448 5618  
Cooling Degree Days 2 0  
Month to date cooling degree days 7 0  
Year to date cooling degree days 16 5  
Growing Degree Days 16 (Base 50)    
Moisture  
Dew Point 60 °F    
Average Humidity 80    
Maximum Humidity 100    
Minimum Humidity 60    
Precipitation  
Precipitation 0.00 in 0.13 in 1.98 in (1922)
Month to date precipitation 0.67 0.60  
Year to date precipitation 8.66 13.28  
Snow  
Snow 0.00 in 0.00 in 0.00 in ()
Month to date snowfall 0.0 0.0  
Since 1 July snowfall 12.0 32.9  
Snow Depth 0.00 in    
Sea Level Pressure  
Sea Level Pressure 29.94 in    
Wind  
Wind Speed 6 mph (East)    
Max Wind Speed 15 mph    
Max Gust Speed 21 mph    
Visibility 7 miles    
Events Fog    
T = Trace of Precipitation, MM = Missing Value Source: NWS Daily Summary

Daily Weather History Graph

Daily Weather History Graph

Search for Another Location

Airport or City:

Astronomy

May. 05, 2012 Rise Set
Actual Time 5:55 AM EDT 8:02 PM EDT
Civil Twilight 5:24 AM EDT 8:32 PM EDT
Nautical Twilight 4:48 AM EDT 9:09 PM EDT
Astronomical Twilight 4:07 AM EDT 9:50 PM EDT
Moon 7:52 PM EDT (5/5) 5:15 AM EDT (5/5)
Length of Visible Light 15h 07m
Length of Day
14h 07m
Full, 100% of the Moon is Illuminated
May 5
Full
May 5
Full
May 12
Last Quarter
May 20
New
May 28
First Quarter

Hourly Weather History & Observations

Time (EDT) Temp. Dew Point Humidity Pressure Visibility Wind Dir Wind Speed Gust Speed Precip Events Conditions
12:51 AM 66.0 °F 63.0 °F 90% 29.89 in 10.0 mi Calm Calm - 0.00 in   Overcast
1:51 AM 63.0 °F 61.0 °F 93% 29.86 in 9.0 mi Calm Calm - N/A   Clear
2:51 AM 62.1 °F 60.1 °F 93% 29.87 in 6.0 mi WNW 4.6 mph - N/A   Clear
3:43 AM 60.8 °F 57.2 °F 88% 29.88 in 1.5 mi SW 3.5 mph - N/A   Clear
3:51 AM 60.1 °F 59.0 °F 96% 29.87 in 10.0 mi SSW 5.8 mph - N/A   Clear
4:51 AM 62.1 °F 61.0 °F 96% 29.88 in 5.0 mi SSE 3.5 mph - N/A   Overcast
5:19 AM 60.8 °F 59.0 °F 94% 29.90 in 10.0 mi Calm Calm - N/A   Scattered Clouds
5:36 AM 59.0 °F 57.2 °F 94% 29.89 in 0.2 mi North 3.5 mph - N/A Fog Fog
5:44 AM 57.2 °F 57.2 °F 100% 29.89 in 0.2 mi North 4.6 mph - N/A Fog Fog
5:53 AM 57.2 °F 57.2 °F 100% 29.89 in 0.5 mi Calm Calm - N/A Fog Fog
6:51 AM 61.0 °F 60.1 °F 97% 29.91 in 0.5 mi Calm Calm - N/A Fog Fog
6:58 AM 60.8 °F 59.0 °F 94% 29.91 in 3.0 mi Calm Calm - N/A   Clear
7:14 AM 60.8 °F 60.8 °F 100% 29.91 in 5.0 mi Calm Calm - N/A   Scattered Clouds
7:22 AM 62.6 °F 60.8 °F 94% 29.92 in 4.0 mi East 3.5 mph - N/A   Mostly Cloudy
7:40 AM 62.6 °F 62.6 °F 100% 29.93 in 2.5 mi East 3.5 mph - N/A   Overcast
7:49 AM 62.6 °F 60.8 °F 94% 29.92 in 3.0 mi East 4.6 mph - N/A   Overcast
7:51 AM 63.0 °F 61.0 °F 93% 29.92 in 3.0 mi East 5.8 mph - N/A Fog Fog
7:58 AM 62.6 °F 62.6 °F 100% 29.93 in 2.5 mi East 5.8 mph - N/A   Overcast
8:40 AM 64.4 °F 62.6 °F 94% 29.93 in 2.5 mi NE 6.9 mph - N/A   Overcast
8:51 AM 64.9 °F 62.1 °F 90% 29.92 in 2.5 mi NE 6.9 mph - N/A   Mostly Cloudy
9:43 AM 68.0 °F 60.8 °F 78% 29.95 in 10.0 mi ENE 6.9 mph - N/A   Overcast
9:51 AM 68.0 °F 62.1 °F 81% 29.94 in 10.0 mi ENE 6.9 mph - N/A   Overcast
10:23 AM 69.8 °F 60.8 °F 73% 29.95 in 10.0 mi ENE 8.1 mph - N/A   Scattered Clouds
10:51 AM 70.0 °F 61.0 °F 73% 29.96 in 10.0 mi ENE 4.6 mph - N/A   Partly Cloudy
10:56 AM 69.8 °F 60.8 °F 73% 29.96 in 10.0 mi NE 6.9 mph - N/A   Mostly Cloudy
11:51 AM 71.1 °F 60.1 °F 68% 29.96 in 10.0 mi NE 5.8 mph - N/A   Overcast
12:51 PM 69.1 °F 62.1 °F 78% 29.96 in 8.0 mi East 11.5 mph - N/A   Overcast
1:51 PM 71.1 °F 62.1 °F 73% 29.95 in 9.0 mi East 10.4 mph - N/A   Overcast
2:51 PM 71.1 °F 60.1 °F 68% 29.94 in 10.0 mi East 8.1 mph - N/A   Overcast
3:17 PM 73.4 °F 62.6 °F 69% 29.94 in 10.0 mi ESE 4.6 mph - N/A   Mostly Cloudy
3:51 PM 75.0 °F 61.0 °F 62% 29.92 in 10.0 mi ESE 4.6 mph - N/A   Partly Cloudy
4:51 PM 73.9 °F 61.0 °F 64% 29.92 in 10.0 mi SSE 10.4 mph - N/A   Partly Cloudy
5:51 PM 72.0 °F 60.1 °F 66% 29.92 in 10.0 mi SE 8.1 mph - N/A   Mostly Cloudy
6:25 PM 69.8 °F 59.0 °F 68% 29.93 in 10.0 mi SE 9.2 mph - N/A   Mostly Cloudy
6:36 PM 69.8 °F 59.0 °F 68% 29.93 in 10.0 mi SE 9.2 mph - N/A   Mostly Cloudy
6:51 PM 69.1 °F 57.9 °F 68% 29.93 in 10.0 mi ESE 10.4 mph 19.6 mph N/A   Mostly Cloudy
7:07 PM 68.0 °F 57.2 °F 68% 29.94 in 10.0 mi SE 8.1 mph - N/A   Mostly Cloudy
7:15 PM 68.0 °F 57.2 °F 68% 29.95 in 10.0 mi SE 10.4 mph - N/A   Overcast
7:51 PM 66.0 °F 57.0 °F 73% 29.95 in 10.0 mi ESE 10.4 mph 20.7 mph N/A   Mostly Cloudy
8:51 PM 64.9 °F 57.0 °F 75% 29.99 in 10.0 mi ESE 6.9 mph - N/A   Overcast
9:08 PM 64.4 °F 57.2 °F 77% 30.00 in 10.0 mi ESE 4.6 mph - N/A   Overcast
9:51 PM 63.0 °F 55.9 °F 78% 30.02 in 10.0 mi ESE 9.2 mph - N/A   Overcast
10:32 PM 62.6 °F 55.4 °F 77% 30.03 in 10.0 mi East 5.8 mph - N/A   Overcast
10:51 PM 62.1 °F 55.9 °F 80% 30.04 in 10.0 mi East 6.9 mph - N/A   Overcast
11:31 PM 60.8 °F 55.4 °F 82% 30.04 in 10.0 mi East 5.8 mph - N/A   Overcast
11:51 PM 61.0 °F 55.9 °F 83% 30.04 in 10.0 mi East 5.8 mph - N/A   Overcast